Blackwell, OK

3:44 PM CDT on August 19, 2017 (GMT -0500)
Blackwell

Weather History for KBKN - January, 2013

Change the Weather History Date:

Monday, January 28, 2013

  Actual Average (KPNC) Record (KPNC)
Temperature  
Mean Temperature 65 °F -  
Max Temperature 75 °F 49 °F 79 °F (2015)
Min Temperature 55 °F 28 °F -2 °F (1948)
Growing Degree Days 15 (Base 50)    
Moisture  
Dew Point 56 °F    
Average Humidity 76    
Maximum Humidity 94    
Minimum Humidity 53    
Precipitation  
Precipitation 0.00 in - - ()
Sea Level Pressure  
Sea Level Pressure 29.77 in    
Wind  
Wind Speed 18 mph (South)    
Max Wind Speed 32 mph    
Max Gust Speed 43 mph    
Visibility 10 miles    
Events      
Averages and records for this station are not official NWS values.
T = Trace of Precipitation, MM = Missing Value Source: NWS Daily Summary

Daily Weather History Graph

Daily Weather History Graph

Search for Another Location

Airport or City:

Trip Planner

Search our weather history database for the weather conditions in past years. The results will help you decide how hot, cold, wet, or windy it might be!

Date:

Astronomy

Jan. 28, 2013 Rise Set
Actual Time 7:34 AM CST 5:51 PM CST
Civil Twilight 7:06 AM CST 6:18 PM CST
Nautical Twilight 6:35 AM CST 6:49 PM CST
Astronomical Twilight 6:05 AM CST 7:20 PM CST
Moon 7:42 PM CST (1/28) 8:04 AM CST (1/28)
Length of Visible Light 11h 11m
Length of Day
10h 16m
Full, 98% of the Moon is Illuminated
Jan 28
Full
Feb 3
Last Quarter
Feb 10
New
Feb 17
First Quarter
Feb 25
Full

Hourly Weather History & Observations

Time (CST) Temp. Dew Point Humidity Pressure Visibility Wind Dir Wind Speed Gust Speed Precip Events Conditions
12:15 AM 59.0 °F 55.4 °F 88% 29.80 in 10.0 mi South 17.3 mph - N/A   Clear
12:35 AM 59.0 °F 53.6 °F 82% 29.80 in 10.0 mi South 15.0 mph - N/A   Clear
12:55 AM 59.0 °F 53.6 °F 82% 29.80 in 10.0 mi South 15.0 mph - N/A   Clear
1:15 AM 57.2 °F 53.6 °F 88% 29.80 in 10.0 mi South 12.7 mph - N/A   Clear
1:35 AM 57.2 °F 53.6 °F 88% 29.81 in 10.0 mi South 11.5 mph - N/A   Clear
1:55 AM 57.2 °F 53.6 °F 88% 29.81 in 10.0 mi South 13.8 mph - N/A   Clear
2:15 AM 57.2 °F 53.6 °F 88% 29.81 in 10.0 mi South 12.7 mph - N/A   Clear
2:35 AM 57.2 °F 53.6 °F 88% 29.80 in 10.0 mi South 12.7 mph - N/A   Clear
2:55 AM 55.4 °F 53.6 °F 94% 29.80 in 10.0 mi South 11.5 mph - N/A   Clear
3:15 AM 55.4 °F 53.6 °F 94% 29.81 in 10.0 mi South 10.4 mph - N/A   Clear
3:35 AM 55.4 °F 53.6 °F 94% 29.81 in 10.0 mi South 10.4 mph - N/A   Clear
3:55 AM 55.4 °F 53.6 °F 94% 29.81 in 10.0 mi South 11.5 mph - N/A   Clear
4:15 AM 57.2 °F 53.6 °F 88% 29.81 in 10.0 mi South 13.8 mph - N/A   Clear
4:35 AM 57.2 °F 53.6 °F 88% 29.81 in 10.0 mi South 16.1 mph - N/A   Clear
4:55 AM 57.2 °F 53.6 °F 88% 29.81 in 10.0 mi South 15.0 mph - N/A   Clear
5:15 AM 57.2 °F 53.6 °F 88% 29.81 in 10.0 mi South 16.1 mph - N/A   Clear
5:35 AM 57.2 °F 53.6 °F 88% 29.81 in 10.0 mi South 16.1 mph 24.2 mph N/A   Clear
5:55 AM 57.2 °F 53.6 °F 88% 29.81 in 10.0 mi South 17.3 mph - N/A   Clear
6:15 AM 57.2 °F 53.6 °F 88% 29.82 in 10.0 mi South 18.4 mph - N/A   Clear
6:35 AM 57.2 °F 53.6 °F 88% 29.82 in 10.0 mi South 17.3 mph 21.9 mph N/A   Clear
6:55 AM 55.4 °F 53.6 °F 94% 29.83 in 10.0 mi South 17.3 mph - N/A   Clear
7:15 AM 55.4 °F 53.6 °F 94% 29.84 in 10.0 mi South 15.0 mph - N/A   Clear
7:35 AM 55.4 °F 51.8 °F 88% 29.84 in 10.0 mi South 13.8 mph - N/A   Clear
7:55 AM 55.4 °F 53.6 °F 94% 29.84 in 10.0 mi South 15.0 mph - N/A   Clear
8:15 AM 57.2 °F 53.6 °F 88% 29.84 in 10.0 mi South 16.1 mph - N/A   Clear
8:35 AM 57.2 °F 55.4 °F 94% 29.85 in 10.0 mi South 20.7 mph - N/A   Clear
8:55 AM 59.0 °F 55.4 °F 88% 29.85 in 10.0 mi SSW 21.9 mph - N/A   Clear
9:15 AM 60.8 °F 57.2 °F 88% 29.85 in 10.0 mi SSW 19.6 mph 24.2 mph N/A   Clear
9:35 AM 62.6 °F 57.2 °F 82% 29.85 in 10.0 mi SSW 19.6 mph 26.5 mph N/A   Clear
9:55 AM 64.4 °F 57.2 °F 77% 29.85 in 10.0 mi SSW 26.5 mph 33.4 mph N/A   Clear
10:15 AM 66.2 °F 57.2 °F 73% 29.85 in 10.0 mi SSW 28.8 mph 34.5 mph N/A   Partly Cloudy
10:35 AM 68.0 °F 57.2 °F 68% 29.85 in 10.0 mi SSW 29.9 mph 38.0 mph N/A   Partly Cloudy
11:15 AM 68.0 °F 59.0 °F 73% 29.84 in 10.0 mi SSW 28.8 mph 35.7 mph N/A   Partly Cloudy
11:35 AM 69.8 °F 59.0 °F 68% 29.83 in 10.0 mi SSW 29.9 mph 34.5 mph N/A   Partly Cloudy
11:55 AM 71.6 °F 59.0 °F 64% 29.83 in 10.0 mi SSW 27.6 mph 36.8 mph N/A   Partly Cloudy
12:15 PM 71.6 °F 59.0 °F 64% 29.82 in 10.0 mi SSW 28.8 mph 36.8 mph N/A   Mostly Cloudy
12:35 PM 71.6 °F 59.0 °F 64% 29.81 in 10.0 mi SSW 28.8 mph 36.8 mph N/A   Mostly Cloudy
12:55 PM 71.6 °F 59.0 °F 64% 29.79 in 10.0 mi SSW 26.5 mph 36.8 mph N/A   Mostly Cloudy
1:15 PM 71.6 °F 57.2 °F 60% 29.77 in 10.0 mi South 29.9 mph 35.7 mph N/A   Overcast
1:35 PM 73.4 °F 57.2 °F 57% 29.75 in 10.0 mi South 29.9 mph 35.7 mph N/A   Mostly Cloudy
1:55 PM 75.2 °F 57.2 °F 53% 29.74 in 10.0 mi South 28.8 mph 40.3 mph N/A   Mostly Cloudy
2:15 PM 73.4 °F 57.2 °F 57% 29.74 in 10.0 mi South 29.9 mph 42.6 mph N/A   Mostly Cloudy
2:35 PM 73.4 °F 57.2 °F 57% 29.73 in 10.0 mi South 27.6 mph 40.3 mph N/A   Overcast
2:55 PM 73.4 °F 57.2 °F 57% 29.73 in 10.0 mi South 21.9 mph 33.4 mph N/A   Overcast
3:15 PM 73.4 °F 57.2 °F 57% 29.72 in 10.0 mi South 31.1 mph 36.8 mph N/A   Mostly Cloudy
3:35 PM 75.2 °F 57.2 °F 53% 29.71 in 10.0 mi South 28.8 mph 35.7 mph N/A   Scattered Clouds
3:55 PM 73.4 °F 57.2 °F 57% 29.71 in 10.0 mi South 32.2 mph 41.4 mph N/A   Mostly Cloudy
4:15 PM 73.4 °F 57.2 °F 57% 29.70 in 10.0 mi South 32.2 mph 38.0 mph N/A   Mostly Cloudy
4:35 PM 73.4 °F 57.2 °F 57% 29.70 in 10.0 mi South 28.8 mph 40.3 mph N/A   Mostly Cloudy
4:55 PM 73.4 °F 57.2 °F 57% 29.69 in 10.0 mi South 31.1 mph 39.1 mph N/A   Scattered Clouds
5:15 PM 73.4 °F 55.4 °F 53% 29.69 in 10.0 mi South 31.1 mph 36.8 mph N/A   Partly Cloudy
5:35 PM 71.6 °F 57.2 °F 60% 29.69 in 10.0 mi South 21.9 mph 27.6 mph N/A   Clear
5:55 PM 69.8 °F 57.2 °F 64% 29.70 in 10.0 mi South 19.6 mph 27.6 mph N/A   Clear
6:15 PM 68.0 °F 57.2 °F 68% 29.70 in 10.0 mi South 15.0 mph - N/A   Scattered Clouds
6:35 PM 68.0 °F 57.2 °F 68% 29.70 in 10.0 mi South 16.1 mph 23.0 mph N/A   Scattered Clouds
6:55 PM 68.0 °F 57.2 °F 68% 29.70 in 10.0 mi South 16.1 mph 21.9 mph N/A   Scattered Clouds
7:15 PM 68.0 °F 57.2 °F 68% 29.70 in 10.0 mi South 18.4 mph - N/A   Partly Cloudy
7:35 PM 68.0 °F 59.0 °F 73% 29.70 in 10.0 mi SSE 15.0 mph - N/A   Mostly Cloudy
7:55 PM 66.2 °F 57.2 °F 73% 29.70 in 10.0 mi SSE 15.0 mph - N/A   Scattered Clouds
8:15 PM 66.2 °F 59.0 °F 78% 29.70 in 10.0 mi SSE 17.3 mph 23.0 mph N/A   Partly Cloudy
8:35 PM 66.2 °F 59.0 °F 78% 29.69 in 10.0 mi SSE 18.4 mph - N/A   Mostly Cloudy
8:55 PM 66.2 °F 59.0 °F 78% 29.69 in 10.0 mi SSE 18.4 mph 25.3 mph N/A   Mostly Cloudy
9:15 PM 66.2 °F 59.0 °F 78% 29.69 in 10.0 mi SSE 18.4 mph 23.0 mph N/A   Mostly Cloudy
9:35 PM 66.2 °F 59.0 °F 78% 29.68 in 10.0 mi SSE 19.6 mph 27.6 mph N/A   Partly Cloudy
9:55 PM 66.2 °F 59.0 °F 78% 29.68 in 10.0 mi SSE 20.7 mph 26.5 mph N/A   Partly Cloudy
10:15 PM 66.2 °F 59.0 °F 78% 29.68 in 10.0 mi SSE 19.6 mph 25.3 mph N/A   Scattered Clouds
10:35 PM 66.2 °F 59.0 °F 78% 29.67 in 10.0 mi South 16.1 mph 21.9 mph N/A   Mostly Cloudy
10:55 PM 66.2 °F 59.0 °F 78% 29.68 in 10.0 mi South 18.4 mph 25.3 mph N/A   Scattered Clouds
11:15 PM 68.0 °F 59.0 °F 73% 29.67 in 10.0 mi South 19.6 mph 26.5 mph N/A   Partly Cloudy
11:35 PM 68.0 °F 59.0 °F 73% 29.68 in 10.0 mi South 19.6 mph 26.5 mph N/A   Partly Cloudy
11:55 PM 66.2 °F 59.0 °F 78% 29.67 in 10.0 mi South 20.7 mph 28.8 mph N/A   Scattered Clouds